QFA2X KLAX-YSSY

Flight info

Callsign QFA2X
Flight time N/A
Altitude 36000
Route SUMMR2 DINTY DCT DUETS R576 DRAYK/N0489F380 R576 DENNS DCT CARRP DCT BARKR B580 BESTY/N0486F400 B580 VESUN/N0485F430 DCT SATNU DCT SOTKI G595 ATNAT DCT RIKNI N774 MARLN
Aircraft A359/H-SDE2E3GHIJ3J4J5LM1ORWXY/LB1D1

Departure

Time N/A
Airport Los Angeles International Airport (KLAX)

Arrival

Time 2026-05-05 10:55
Airport Sydney Kingsford Smith International Airport (YSSY)
Time Latitude Longitude Altitude Speed Heading
2026-05-05 09:36 -30.13331 159.21511 39658 ft 450 kts 225°
2026-05-05 09:36 -30.15931 159.19487 39839 ft 450 kts 225°
2026-05-05 09:37 -30.21187 159.15387 40024 ft 454 kts 225°
2026-05-05 09:37 -30.23775 159.13369 40189 ft 454 kts 225°
2026-05-05 09:37 -30.26359 159.11350 40351 ft 453 kts 225°
2026-05-05 09:38 -30.28897 159.09100 40561 ft 445 kts 231°
2026-05-05 09:38 -30.31243 159.06762 40667 ft 445 kts 231°
2026-05-05 09:38 -30.33553 159.04395 40824 ft 444 kts 232°
2026-05-05 09:38 -30.35828 159.02030 41037 ft 443 kts 232°
2026-05-05 09:39 -30.38134 158.99616 41222 ft 442 kts 232°
2026-05-05 09:39 -30.40415 158.97222 41360 ft 443 kts 232°
2026-05-05 09:39 -30.42696 158.94829 41488 ft 443 kts 232°
2026-05-05 09:39 -30.44982 158.92434 41635 ft 443 kts 232°
2026-05-05 09:40 -30.47304 158.90006 41768 ft 443 kts 232°
2026-05-05 09:40 -30.49595 158.87613 41909 ft 444 kts 232°
2026-05-05 09:40 -30.51887 158.85216 42019 ft 444 kts 232°
2026-05-05 09:40 -30.54216 158.82779 42093 ft 446 kts 232°
2026-05-05 09:41 -30.56482 158.80402 42240 ft 446 kts 232°
2026-05-05 09:41 -30.58807 158.77963 42419 ft 444 kts 232°
2026-05-05 09:41 -30.61133 158.75519 42558 ft 444 kts 232°
2026-05-05 09:41 -30.63421 158.73114 42697 ft 444 kts 232°
2026-05-05 09:42 -30.65710 158.70706 42805 ft 444 kts 232°
2026-05-05 09:42 -30.67257 158.69079 42883 ft 444 kts 232°
2026-05-05 09:42 -30.69549 158.66666 42995 ft 444 kts 232°
2026-05-05 09:42 -30.71841 158.64253 43097 ft 444 kts 231°
2026-05-05 09:43 -30.76452 158.59392 43120 ft 444 kts 231°
2026-05-05 09:43 -30.81037 158.54552 43125 ft 444 kts 232°
2026-05-05 09:44 -30.85667 158.49655 43122 ft 443 kts 232°
2026-05-05 09:44 -30.90232 158.44817 43121 ft 443 kts 232°
2026-05-05 09:45 -30.94800 158.39974 43122 ft 443 kts 232°
2026-05-05 09:45 -30.99365 158.35129 43123 ft 443 kts 232°
2026-05-05 09:46 -31.03925 158.30284 43125 ft 443 kts 232°
2026-05-05 09:46 -31.08512 158.25403 43122 ft 443 kts 232°
2026-05-05 09:47 -31.13091 158.20521 43130 ft 443 kts 232°
2026-05-05 09:47 -31.17645 158.15658 43128 ft 444 kts 232°
2026-05-05 09:48 -31.22208 158.10783 43126 ft 445 kts 232°
2026-05-05 09:48 -31.26803 158.05867 43130 ft 445 kts 232°
2026-05-05 09:49 -31.31365 158.00977 43127 ft 444 kts 232°
2026-05-05 09:49 -31.35950 157.96055 43128 ft 444 kts 232°
2026-05-05 09:50 -31.40506 157.91161 43123 ft 444 kts 232°
2026-05-05 09:50 -31.45057 157.86262 43115 ft 445 kts 232°
2026-05-05 09:51 -31.49653 157.81305 43121 ft 446 kts 232°
2026-05-05 09:51 -31.54226 157.76370 43127 ft 447 kts 232°
2026-05-05 09:52 -31.58806 157.71424 43117 ft 447 kts 232°
2026-05-05 09:52 -31.63380 157.66480 43113 ft 447 kts 232°
2026-05-05 09:53 -31.67953 157.61522 43124 ft 447 kts 233°
2026-05-05 09:53 -31.72552 157.56525 43124 ft 447 kts 232°
2026-05-05 09:54 -31.74842 157.54034 43007 ft 451 kts 232°
2026-05-05 09:54 -31.77145 157.51531 43107 ft 451 kts 233°
2026-05-05 09:54 -31.81750 157.46518 43124 ft 450 kts 233°
2026-05-05 09:55 -31.86334 157.41519 43124 ft 449 kts 233°
2026-05-05 09:55 -31.90908 157.36526 43124 ft 449 kts 233°
2026-05-05 09:56 -31.95502 157.31499 43124 ft 449 kts 233°
2026-05-05 09:56 -32.00046 157.26524 43124 ft 449 kts 233°
2026-05-05 09:57 -32.04636 157.21495 43140 ft 449 kts 233°
2026-05-05 09:57 -32.09221 157.16461 43134 ft 450 kts 233°
2026-05-05 09:58 -32.13809 157.11416 43124 ft 450 kts 233°
2026-05-05 09:58 -32.18360 157.06406 43124 ft 450 kts 233°
2026-05-05 09:59 -32.22941 157.01356 43127 ft 450 kts 233°
2026-05-05 09:59 -32.27523 156.96296 43127 ft 450 kts 233°
2026-05-05 10:00 -32.32096 156.91238 43130 ft 452 kts 233°
2026-05-05 10:00 -32.36696 156.86142 43127 ft 452 kts 233°
2026-05-05 10:01 -32.41260 156.81080 43130 ft 452 kts 233°
2026-05-05 10:01 -32.45875 156.75954 43131 ft 452 kts 233°
2026-05-05 10:02 -32.50461 156.70850 43143 ft 452 kts 233°
2026-05-05 10:02 -32.55027 156.65759 43131 ft 454 kts 233°
2026-05-05 10:03 -32.59633 156.60623 43127 ft 454 kts 233°
2026-05-05 10:03 -32.64237 156.55485 43129 ft 454 kts 233°
2026-05-05 10:04 -32.68844 156.50331 43136 ft 455 kts 233°
2026-05-05 10:04 -32.72668 156.46045 43137 ft 455 kts 232°
2026-05-05 10:05 -32.77274 156.40876 43132 ft 455 kts 232°
2026-05-05 10:05 -32.81881 156.35700 43139 ft 456 kts 232°
2026-05-05 10:06 -32.86491 156.30512 43138 ft 456 kts 233°
2026-05-05 10:06 -32.91092 156.25325 43142 ft 456 kts 232°
2026-05-05 10:07 -32.95668 156.20159 43133 ft 457 kts 233°
2026-05-05 10:07 -33.00282 156.14941 43132 ft 457 kts 233°
2026-05-05 10:08 -33.04888 156.09728 43138 ft 457 kts 233°
2026-05-05 10:08 -33.09501 156.04500 43137 ft 457 kts 233°
2026-05-05 10:09 -33.14111 155.99263 43138 ft 458 kts 233°
2026-05-05 10:09 -33.18724 155.94019 43137 ft 458 kts 233°
2026-05-05 10:10 -33.23332 155.88768 43138 ft 462 kts 233°
2026-05-05 10:10 -33.27994 155.83448 43138 ft 464 kts 233°
2026-05-05 10:11 -33.32667 155.78107 43137 ft 466 kts 232°
2026-05-05 10:11 -33.37365 155.72728 43139 ft 469 kts 232°
2026-05-05 10:12 -33.42078 155.67327 43139 ft 469 kts 232°
2026-05-05 10:12 -33.46794 155.61915 43133 ft 469 kts 232°
2026-05-05 10:13 -33.51479 155.56528 43144 ft 470 kts 232°
2026-05-05 10:13 -33.56201 155.51090 43142 ft 471 kts 232°
2026-05-05 10:14 -33.60987 155.45572 43143 ft 471 kts 232°
2026-05-05 10:14 -33.65772 155.40043 43145 ft 471 kts 232°
2026-05-05 10:15 -33.70552 155.34512 43142 ft 472 kts 232°
2026-05-05 10:15 -33.75286 155.29025 43143 ft 473 kts 232°
2026-05-05 10:16 -33.79939 155.23451 43147 ft 468 kts 237°
2026-05-05 10:16 -33.83421 155.17029 43143 ft 452 kts 252°
2026-05-05 10:17 -33.85118 155.09874 43141 ft 442 kts 266°
2026-05-05 10:17 -33.85845 155.02531 43165 ft 443 kts 269°
2026-05-05 10:18 -33.86429 154.95114 43141 ft 447 kts 269°
2026-05-05 10:18 -33.87031 154.87604 43142 ft 448 kts 269°
2026-05-05 10:19 -33.87657 154.80121 43145 ft 448 kts 268°
2026-05-05 10:19 -33.88289 154.72659 43144 ft 448 kts 269°
2026-05-05 10:20 -33.88915 154.65195 43146 ft 448 kts 268°
2026-05-05 10:20 -33.89534 154.57744 43148 ft 447 kts 268°
2026-05-05 10:21 -33.90146 154.50351 43148 ft 447 kts 268°
2026-05-05 10:21 -33.90840 154.42911 43152 ft 447 kts 267°
2026-05-05 10:22 -33.91624 154.35333 43164 ft 447 kts 267°
2026-05-05 10:22 -33.92382 154.27894 43151 ft 447 kts 268°
2026-05-05 10:23 -33.93119 154.20451 43152 ft 449 kts 267°
2026-05-05 10:23 -33.93851 154.12984 43151 ft 449 kts 268°
2026-05-05 10:24 -33.94577 154.05519 43154 ft 449 kts 268°
2026-05-05 10:24 -33.95299 153.98041 43154 ft 449 kts 268°
2026-05-05 10:25 -33.96026 153.90455 43154 ft 449 kts 268°
2026-05-05 10:25 -33.96739 153.82971 43154 ft 449 kts 268°
2026-05-05 10:26 -33.97449 153.75494 42997 ft 448 kts 268°
2026-05-05 10:26 -33.97801 153.71766 42610 ft 447 kts 268°
2026-05-05 10:26 -33.98153 153.68033 42226 ft 447 kts 268°
2026-05-05 10:27 -33.98501 153.64324 41842 ft 446 kts 268°
2026-05-05 10:27 -33.98842 153.60664 41484 ft 445 kts 268°
2026-05-05 10:27 -33.99072 153.58170 41231 ft 444 kts 268°
2026-05-05 10:27 -33.99413 153.54478 40875 ft 443 kts 268°
2026-05-05 10:28 -33.99752 153.50791 40522 ft 443 kts 268°
2026-05-05 10:28 -34.00091 153.47098 40168 ft 443 kts 268°
2026-05-05 10:28 -34.00429 153.43412 39821 ft 442 kts 268°
2026-05-05 10:28 -34.00765 153.39738 39477 ft 441 kts 269°
2026-05-05 10:29 -34.01100 153.36057 39145 ft 441 kts 269°
2026-05-05 10:29 -34.01432 153.32391 38802 ft 440 kts 269°
2026-05-05 10:29 -34.01764 153.28731 38375 ft 439 kts 269°
2026-05-05 10:29 -34.02094 153.25062 37944 ft 440 kts 269°
2026-05-05 10:30 -34.02422 153.21392 37516 ft 441 kts 269°
2026-05-05 10:30 -34.02748 153.17716 37116 ft 441 kts 269°
2026-05-05 10:30 -34.03074 153.14041 36707 ft 442 kts 270°
2026-05-05 10:30 -34.03400 153.10356 36313 ft 443 kts 270°
2026-05-05 10:31 -34.03727 153.06660 35931 ft 443 kts 270°
2026-05-05 10:31 -34.04049 153.03010 35565 ft 444 kts 270°
2026-05-05 10:31 -34.04377 152.99300 35176 ft 444 kts 270°
2026-05-05 10:31 -34.04704 152.95591 34803 ft 445 kts 270°
2026-05-05 10:32 -34.05031 152.91882 34432 ft 445 kts 270°
2026-05-05 10:32 -34.05358 152.88161 34063 ft 446 kts 270°
2026-05-05 10:32 -34.05684 152.84440 33632 ft 447 kts 270°
2026-05-05 10:32 -34.06007 152.80705 33234 ft 449 kts 270°
2026-05-05 10:33 -34.06326 152.77001 32705 ft 452 kts 270°
2026-05-05 10:33 -34.06656 152.73167 32022 ft 454 kts 269°
2026-05-05 10:33 -34.06984 152.69359 31331 ft 458 kts 269°
2026-05-05 10:33 -34.07314 152.65520 30656 ft 461 kts 269°
2026-05-05 10:34 -34.07646 152.61667 29952 ft 463 kts 269°
2026-05-05 10:34 -34.07920 152.57813 29181 ft 459 kts 272°
2026-05-05 10:34 -34.07782 152.53992 28427 ft 453 kts 278°
2026-05-05 10:34 -34.07491 152.50218 27699 ft 451 kts 278°
2026-05-05 10:35 -34.07168 152.46457 26985 ft 450 kts 278°
2026-05-05 10:35 -34.06832 152.42709 26288 ft 449 kts 278°
2026-05-05 10:35 -34.06488 152.38968 25611 ft 447 kts 278°
2026-05-05 10:35 -34.06140 152.35247 24947 ft 445 kts 278°
2026-05-05 10:36 -34.05791 152.31547 24298 ft 443 kts 278°
2026-05-05 10:36 -34.05441 152.27857 23648 ft 442 kts 278°
2026-05-05 10:36 -34.05091 152.24184 22892 ft 440 kts 277°
2026-05-05 10:36 -34.04736 152.20470 22141 ft 437 kts 277°
2026-05-05 10:37 -34.04389 152.16852 21426 ft 433 kts 277°
2026-05-05 10:37 -34.04043 152.13257 20728 ft 430 kts 277°
2026-05-05 10:37 -34.03698 152.09683 20044 ft 427 kts 277°
2026-05-05 10:37 -34.03354 152.06132 19373 ft 425 kts 277°
2026-05-05 10:38 -34.03013 152.02658 18728 ft 422 kts 277°
2026-05-05 10:38 -34.02660 151.99155 18023 ft 419 kts 277°
2026-05-05 10:38 -34.02304 151.95636 17288 ft 416 kts 277°
2026-05-05 10:38 -34.01959 151.92223 16573 ft 412 kts 277°
2026-05-05 10:39 -34.01613 151.88805 15876 ft 409 kts 277°
2026-05-05 10:39 -34.01264 151.85367 15183 ft 406 kts 277°
2026-05-05 10:39 -34.00928 151.82054 14526 ft 402 kts 277°
2026-05-05 10:39 -34.00583 151.78676 13849 ft 400 kts 277°
2026-05-05 10:40 -34.00244 151.75366 13124 ft 396 kts 277°
2026-05-05 10:40 -33.99908 151.72085 12410 ft 391 kts 277°
2026-05-05 10:40 -33.99577 151.68858 11716 ft 387 kts 277°
2026-05-05 10:40 -33.99248 151.65664 11033 ft 379 kts 277°
2026-05-05 10:41 -33.98925 151.62554 10367 ft 369 kts 277°
2026-05-05 10:41 -33.98610 151.59528 9666 ft 360 kts 277°
2026-05-05 10:41 -33.98298 151.56566 8944 ft 352 kts 277°
2026-05-05 10:41 -33.97993 151.53677 8237 ft 344 kts 276°
2026-05-05 10:42 -33.97401 151.48031 6853 ft 331 kts 277°
2026-05-05 10:42 -33.97113 151.45303 6280 ft 325 kts 277°
2026-05-05 10:42 -33.96828 151.42615 6027 ft 323 kts 276°
2026-05-05 10:43 -33.96540 151.39900 5990 ft 322 kts 276°
2026-05-05 10:43 -33.96256 151.37225 5987 ft 299 kts 275°
2026-05-05 10:43 -33.96020 151.34885 5983 ft 276 kts 276°
2026-05-05 10:43 -33.95734 151.32715 5930 ft 258 kts 285°
2026-05-05 10:44 -33.94828 151.30899 5761 ft 250 kts 315°
2026-05-05 10:44 -33.93343 151.29933 5603 ft 244 kts 346°
2026-05-05 10:44 -33.91669 151.29932 5324 ft 241 kts 10°
2026-05-05 10:44 -33.90032 151.30309 5050 ft 237 kts 13°
2026-05-05 10:45 -33.88421 151.30714 4758 ft 235 kts 13°
2026-05-05 10:45 -33.86822 151.31114 4451 ft 234 kts 13°
2026-05-05 10:45 -33.85229 151.31509 4139 ft 233 kts 13°
2026-05-05 10:45 -33.83607 151.31763 3996 ft 237 kts
2026-05-05 10:46 -33.81881 151.31598 3999 ft 258 kts 354°
2026-05-05 10:46 -33.80095 151.31325 3994 ft 264 kts 353°
2026-05-05 10:46 -33.78276 151.31033 4000 ft 265 kts 353°
2026-05-05 10:46 -33.76449 151.30737 3994 ft 265 kts 353°
2026-05-05 10:47 -33.74656 151.30264 4000 ft 266 kts 338°
2026-05-05 10:47 -33.73185 151.29006 4000 ft 254 kts 310°
2026-05-05 10:47 -33.72406 151.27174 3994 ft 239 kts 281°
2026-05-05 10:47 -33.72330 151.25168 4005 ft 243 kts 265°
2026-05-05 10:48 -33.72462 151.23160 4005 ft 245 kts 263°
2026-05-05 10:48 -33.72623 151.21147 4006 ft 235 kts 263°
2026-05-05 10:48 -33.72821 151.19238 3988 ft 218 kts 256°
2026-05-05 10:48 -33.73518 151.17674 3747 ft 211 kts 224°
2026-05-05 10:49 -33.74738 151.16799 3523 ft 204 kts 199°
2026-05-05 10:49 -33.76051 151.16346 3382 ft 192 kts 194°
2026-05-05 10:49 -33.77325 151.15974 3272 ft 180 kts 193°
2026-05-05 10:49 -33.78512 151.15631 3123 ft 170 kts 193°
2026-05-05 10:50 -33.79626 151.15315 3013 ft 160 kts 193°
2026-05-05 10:50 -33.80721 151.15288 2912 ft 154 kts 173°
2026-05-05 10:50 -33.81763 151.15534 2735 ft 152 kts 168°
2026-05-05 10:50 -33.82802 151.15791 2521 ft 148 kts 170°
2026-05-05 10:51 -33.83772 151.16014 2332 ft 142 kts 170°
2026-05-05 10:51 -33.84736 151.16228 2125 ft 139 kts 170°
2026-05-05 10:51 -33.85672 151.16465 1939 ft 137 kts 169°
2026-05-05 10:51 -33.86537 151.16684 1855 ft 123 kts 169°
2026-05-05 10:52 -33.87358 151.16909 1723 ft 117 kts 168°
2026-05-05 10:52 -33.88145 151.17124 1617 ft 117 kts 169°
2026-05-05 10:52 -33.88946 151.17335 1404 ft 117 kts 168°
2026-05-05 10:52 -33.89746 151.17566 1229 ft 118 kts 169°
2026-05-05 10:53 -33.90281 151.17698 1077 ft 117 kts 171°
2026-05-05 10:53 -33.91073 151.17863 927 ft 116 kts 171°
2026-05-05 10:53 -33.91862 151.18077 749 ft 116 kts 169°
2026-05-05 10:53 -33.92646 151.18278 592 ft 116 kts 172°
2026-05-05 10:54 -33.93440 151.18467 391 ft 117 kts 170°
2026-05-05 10:54 -33.94244 151.18668 244 ft 120 kts 172°
2026-05-05 10:54 -33.95085 151.18872 84 ft 122 kts 172°
2026-05-05 10:54 -33.95875 151.19066 35 ft 105 kts 168°
2026-05-05 10:55 -33.96399 151.19202 28 ft 53 kts 166°
2026-05-05 10:55 -33.96669 151.19274 26 ft 29 kts 169°
2026-05-05 10:55 -33.96907 151.19294 28 ft 48 kts 184°
2026-05-05 10:55 -33.97121 151.19226 27 ft 16 kts 225°
2026-05-05 10:56 -33.97129 151.19164 28 ft 0 kts 310°
2026-05-05 10:56 -33.97111 151.19149 27 ft 7 kts 334°
2026-05-05 10:56 -33.97100 151.19144 27 ft 1 kts 338°
2026-05-05 10:57 -33.97086 151.19140 27 ft 3 kts 346°
2026-05-05 10:57 -33.96961 151.19108 26 ft 31 kts 348°
2026-05-05 10:57 -33.96745 151.19078 27 ft 33 kts
2026-05-05 10:57 -33.96514 151.19033 28 ft 38 kts 348°
2026-05-05 10:58 -33.96236 151.18962 33 ft 42 kts 348°
2026-05-05 10:58 -33.95949 151.18888 34 ft 39 kts 348°
2026-05-05 10:58 -33.95727 151.18830 32 ft 33 kts 348°
2026-05-05 10:58 -33.95505 151.18772 29 ft 35 kts 347°
2026-05-05 10:59 -33.95276 151.18700 32 ft 29 kts 334°
2026-05-05 10:59 -33.95127 151.18537 33 ft 28 kts 296°
2026-05-05 10:59 -33.95136 151.18327 32 ft 25 kts 256°
2026-05-05 10:59 -33.95163 151.18185 32 ft 12 kts 258°
2026-05-05 11:00 -33.95171 151.18141 32 ft 0 kts 257°
2026-05-05 11:01 -33.95185 151.18063 32 ft 23 kts 258°
2026-05-05 11:01 -33.95196 151.17982 31 ft 0 kts 285°
2026-05-05 11:01 -33.95190 151.17978 31 ft 0 kts 321°
2026-05-05 11:01 -33.95148 151.17960 32 ft 20 kts 342°
2026-05-05 11:02 -33.95013 151.17921 31 ft 18 kts 350°
2026-05-05 11:02 -33.94923 151.17904 28 ft 10 kts 348°
2026-05-05 11:02 -33.94806 151.17868 28 ft 24 kts 348°
2026-05-05 11:02 -33.94653 151.17829 27 ft 18 kts 347°
2026-05-05 11:03 -33.94569 151.17807 30 ft 10 kts 347°
2026-05-05 11:03 -33.94508 151.17791 29 ft 3 kts 347°
2026-05-05 11:03 -33.94504 151.17790 29 ft 6 kts 347°
2026-05-05 11:03 -33.94377 151.17751 29 ft 22 kts 344°
2026-05-05 11:04 -33.94267 151.17718 28 ft 10 kts 346°
2026-05-05 11:04 -33.94216 151.17702 28 ft 15 kts 345°
2026-05-05 11:04 -33.94085 151.17660 28 ft 17 kts 345°
2026-05-05 11:04 -33.93988 151.17635 27 ft 12 kts 347°
2026-05-05 11:05 -33.93920 151.17610 28 ft 0 kts 329°
2026-05-05 11:05 -33.93916 151.17608 28 ft 0 kts 330°
2026-05-05 11:05 -33.93910 151.17601 28 ft 5 kts 315°
2026-05-05 11:05 -33.93901 151.17573 29 ft 0 kts 278°
2026-05-05 11:07 -33.93901 151.17572 29 ft 3 kts 278°
2026-05-05 11:07 -33.93941 151.17348 28 ft 39 kts 254°
2026-05-05 11:07 -33.93922 151.17184 28 ft 17 kts 335°
2026-05-05 11:07 -33.93753 151.17168 26 ft 35 kts 350°
2026-05-05 11:08 -33.93574 151.17122 27 ft 17 kts 347°
2026-05-05 11:08 -33.93509 151.17072 27 ft 7 kts 297°
2026-05-05 11:08 -33.93509 151.16993 27 ft 18 kts 259°
2026-05-05 11:08 -33.93522 151.16934 27 ft 0 kts 244°
2026-05-05 11:09 -33.93523 151.16933 27 ft 0 kts 244°
2026-05-05 11:09 -33.93560 151.16915 27 ft 8 kts 178°
2026-05-05 11:09 -33.93605 151.16917 27 ft 0 kts 178°
2026-05-05 11:10 -33.93621 151.16918 27 ft 2 kts 177°